星链-3636 (STARLINK-3636 )

导读

STARLINK-3636是美国太空探索技术公司(SpaceX)星链(Starlink)互联网卫星星座中的一员,于2022年3月9日发射升空,作为星链低轨互联网星座组网卫星,它主要服务于全球范围的高速低延迟互联网接入,推动星链星座在通信、导航等多领域的服务覆盖能力建设。

基本信息
目录编号:
51995
目录名称:
STARLINK-3636
国际标识:
2022-025AR
轨道中心:
EARTH
卫星名称:
星链-3636
卫星全名:
星链-3636 (STARLINK-3636 )
卫星状态:
在轨 (已飞行1640 天)
发射日期:
2022-03-09 UTC
国别 :
美国 (US)
星等 :
--
轨道信息
数据来源 国际轨道数据 AOE轨道数据
星历时间 2026-09-04T11:21:03+0800
11小时前
查看轨道信息
2026-09-04T02:00:00+0800
21小时前
查看轨道信息
半长轴 6848.869km 6848.868km
偏心率 0.000113 0.0001517
轨道倾角 53.159° 53.158°
近地点辐角 84.024° 62.934°
升交点赤经 287.090° 288.904°
平近点角 276.089° 307.559°
近地点 469.958km 469.692km
远地点 471.506km 471.77km
周期 94.013分钟 94.013分钟
每日圈数 15.317028 15.317031
详细信息
固有亮度:
5
最大亮度:
2.5
卫星平台:
Starlink v1.5
覆盖范围:
全球
运营商:
太空探索技术公司
运营商所在国:
美国
制造商(研发单位):
太空探索技术公司
制造商所在国:
美国
使用方式:
暂无
卫星简介
星链(Starlink)计划是由太空探索技术公司(SpaceX)提出的一个巨型低轨卫星互联网星座项目,计划在2019年至2024年间在太空搭建由约1.2万颗卫星组成的“星链”网络,其中1584颗将部署在地球上空550千米处的近地轨道,并从2020年开始工作。该卫星仍在工作。
2D轨道图
3D轨道图
轨道高度分析图
轨道倾角分析图
轨道综合分析图
查看轨道综合分析图
交会数据列表
事件ID 空间交会对象 最接近时刻(TCA) 交会距离 交会风险概率(CRP) 交会风险指数(CRI) 操作
CDM_260904-164005-199506-579221
2026-09-04T
16:40:05+0000
2.221 km
极远距离
2.222781E-6 低风险 0.42
CDM_260906-163305-199506-943521
2026-09-06T
16:33:19+0000
2.293 km
极远距离
2.064795E-6 低风险 0.41
CDM_260904-192805-199505-213721
2026-09-04T
19:28:58+0000
1.902 km
极远距离
1.849878E-6 低风险 0.4
CDM_260906-034905-199506-974921
2026-09-06T
03:49:01+0000
2.630 km
极远距离
1.604462E-6 低风险 0.39
CDM_260904-153905-199506-781121
2026-09-04T
15:39:31+0000
2.893 km
极远距离
1.373967E-6 低风险 0.38